Back to catalog

STARLINK-30589

AliveCommunicationsVLEO
NORAD 58103·PAYLOAD·🇺🇸 United States

Launched Oct 21, 2023 from Vandenberg Space Force Base

Loading…

Next Passes (next 24 hours)

TLE

FreshSource: CelesTrak SupGP

Epoch: Sep 14, 2026, 14:05 UTC

1 58103C 23161G   26257.58729167 -.00064821  00000+0 -19156-2 0  2570
2 58103  53.1602   7.0602 0001292  75.9854 332.2106 15.34414792    11

Track STARLINK-30589 in real time with AllMySat

Download on the App Store